Tracking 19792 objects as of 15-Jul-2019
HD Live streaming from Space Station
objects crossing your sky now

USA 12

Track USA 12 now!
USA 12 is classified as:


NORAD ID: 16117
Int'l Code: 1985-092C
Perigee: 36,122.8 km
Apogee: 36,190.6 km
Inclination: 15.3 °
Period: 1,454.7 minutes
Semi major axis: 42527 km
RCS: Unknown
Launch date: October 3, 1985
Source: United States (US)
Launch site: AIR FORCE EASTERN TEST RANGE (AFETR)
aabbcc
Your satellite tracking list
Your tracking list is empty




NASA's NSSDC Master Catalog

Two Line Element Set (TLE):
1 16117U 85092C   19195.34919544 -.00000235  00000-0  00000+0 0  9994
2 16117  15.3350   6.5614 0007974  28.2266 331.8318  0.98990840   666
Source of the keplerian elements: McCants